Regional Weather Roundup
Issued by NWS Northern Indiana

Home | Current Version | Previous Version | Graphics & Text | Print | Product List | Glossary On
Versions: 1 2 3 4 5 6 7 8 9 10 11 12 13 14 15 16 17 18 19 20 21 22 23 24 25 26 27 28 29 30 31 32 33 34 35 36 37 38 39 40 41 42 43 44 45 46 47 48 49 50
689
ASUS43 KIWX 102310
RWRIWX

KIWX WEATHER ROUNDUP
NATIONAL WEATHER SERVICE NORTHERN INDIANA
600 PM EST SAT DEC 10 2016

NOTE: "FAIR" INDICATES FEW OR NO CLOUDS BELOW 12,000 FEET WITH NO
SIGNIFICANT WEATHER AND/OR OBSTRUCTIONS TO VISIBILITY.

* THESE STATIONS ARE NOT UNDER NWS QUALITY CONTROL. THEY ALSO MAY NOT
  REPORT WEATHER SUCH AS PRECIPITATION OR FOG.

INZ001>027-110000-
NORTHERN INDIANA

CITY           SKY/WX    TMP DP  RH WIND       PRES   REMARKS
GARY*          LGT SNOW  25  18  74 SW6       30.44R WCI  18
VALPARAISO     CLOUDY    25  15  66 SW6       30.42S WCI  18
MICHIGAN CITY* CLOUDY    25  14  63 SW7       30.43S WCI  17
LAPORTE*       CLOUDY    24  15  68 SW6       30.42S WCI  17
KNOX*          CLOUDY    27  -4  26 SW5       30.43R WCI  21
SOUTH BEND     CLOUDY    23  14  68 SW5       30.42S WCI  17
ELKHART*       CLOUDY    25  14  63 SW5       30.42S WCI  19
GOSHEN         CLOUDY    25  13  60 S3        30.42S
MONTICELLO*    CLOUDY    26  12  57 S7        30.43S WCI  18
LOGANSPORT*    CLOUDY    27  18  69 S7        30.44S WCI  19
ROCHESTER*     MOCLDY    28  18  64 SW5       30.43R WCI  23
WARSAW*        CLOUDY    27  12  54 SW3       30.42S
ANGOLA*        PTCLDY    23  16  74 SW3       30.40S
FORT WAYNE     CLOUDY    25  15  66 SW3       30.44S
HUNTINGTON*    CLOUDY    25  14  62 CALM      30.43S
PERU/GRISSOM   CLOUDY    26  16  64 SW7       30.41S WCI  19
MARION*        CLOUDY    26  17  67 SW7       30.44R WCI  19

$$
INZ028>050-110000-
CENTRAL INDIANA

CITY           SKY/WX    TMP DP  RH WIND       PRES   REMARKS
LAFAYETTE      CLOUDY    26  16  65 SW7       30.44S WCI  18
KOKOMO*        FLURRIES  26  17  68 S8        30.44S WCI  18
MUNCIE*        CLOUDY    28  16  60 S9        30.43F WCI  19
INDIANAPOLIS   CLOUDY    28  17  63 S9        30.43F WCI  19

$$
MIZ043>046-050>051-056>058-064>065-071>073-077>080-110000-
SOUTHWEST LOWER MICHIGAN

CITY           SKY/WX    TMP DP  RH WIND       PRES   REMARKS
BATTLE CREEK   CLOUDY    19  17  92 SW7       30.39S WCI  10
BENTON HARBOR  LGT SNOW  24  17  74 S6        30.41S WCI  17
COLDWATER*     CLOUDY    24  16  72 SW6       30.40S WCI  16
HILLSDALE*     CLOUDY    23  14  68 SW3       30.38S
HOLLAND        CLOUDY    26  17  68 SW5       30.38F WCI  20
GRAND RAPIDS   LGT SNOW  22  18  85 SW3       30.38F FOG
KALAMAZOO      LGT SNOW  23  17  78 SW10      30.40S WCI  12
STURGIS*       CLOUDY    23  16  74 SW6       30.40S WCI  16
THREE RIVERS*  CLOUDY    23  16  74 SW6       30.42S WCI  16

$$
OHZ001>008-015>018-024>025-110000-
NORTHWEST OHIO

CITY           SKY/WX    TMP DP  RH WIND       PRES   REMARKS
WAUSEON*       MOCLDY    25  16  68 SW8       30.43S WCI  16
DEFIANCE       CLOUDY    26  15  63 SW5       30.45S WCI  20
FINDLAY        CLOUDY    26  14  60 W7        30.44S WCI  18
TOLEDO EXPRESS CLOUDY    26  16  65 SW8       30.44R WCI  18
TOLEDO METCALF CLOUDY    27  16  63 SW12      30.45S WCI  17
LIMA           CLOUDY    25  16  68 SW7       30.43F WCI  17

$$
AND FOR LAKE MICHIGAN COASTAL AND OPEN LAKE BUOY OBSERVATIONS

STATION/POSITION TEMP    WIND        PRES    VSBY  WAVE
                 AIR SEA DIR/SP/G                  HT/PER
                 (F)     (DEG/KT/KT) (MB)    (MI)  (FT/S)
CALUMET HARBOR    23     200/  6/  7 1029.7R
BURNS HARBOR      24     220/  8/ 12 1030.8R
SAINT JOSEPH      25     180/  5/  9 1029.8

$$
&&




USA.gov is the U.S. government's official web portal to all federal, state and local government web resources and services.